Terug naar catalogus

CZ-6A DEB

ActiefPO
NORAD 60901·DEBRIS·🇨🇳 China

Gelanceerd Aug 6, 2024 vanaf Taiyuan Satellite Launch Center

Loading…

Volgende Passages (komende 24 uur)

TLE

VersSource: Space-Track

Epoch: Sep 14, 2026, 10:05 UTC

1 60901U 24140LG  26257.42081439  .00003392  00000-0  70852-3 0  9992
2 60901  88.9725 257.4017 0066805 253.9496 105.4352 14.58286900109919

Volg CZ-6A DEB in realtime met AllMySat

Download on the App Store